[[{"header":{"parameterUnit":"m.s-1","parameterCategory":1,"la1":30.2991,"la2":30.254,"lo1":-89.0895,"lo2":-89.0444,"dy":0.0017,"dx":0.0017,"nx":28,"ny":28,"refTime":"2024-08-11T03:00:00:Z","depth":0,"parameterNumber":2,"parameterNumberName":"U-component_of_WINDS"},"data":[0,0,0,0,0,0,0,0,0,0,0,0,0,0,0,0,0,0,0,0,0,0,0,0,0,0,0,0,0,0,0,0,0,0,0,0,0,0,0,0,0,0,0,0,0,0,0,0,0,0,0,0,0,0,0,0,0,0,0.1233,0.1234,0,0.1309,0.131,0.1311,0.1432,0.1435,0.1437,0.1439,0.1515,0.1515,0.1515,0,0,0,0,0,0,0,0,0,0,0,0,0,0.1192,0.1192,0.1233,0.1234,0.1235,0.1309,0.131,0.1311,0.1432,0.1435,0.1437,0.144,0.1515,0.1515,0.1515,0,0,0,0,0,0,0,0,0,0,0,0,0,0.1232,0.1192,0.1233,0.1304,0.1311,0.1308,0.131,0.1311,0.1432,0.1435,0.1438,0.1441,0.1515,0.1515,0.1515,0.1448,0,0,0.1515,0.1515,0,0,0,0,0,0,0,0,0.123,0.1234,0.1293,0.1299,0.1307,0.1365,0.1323,0.1357,0.1431,0.1386,0.1439,0.1443,0.1462,0.1467,0.1474,0.1451,0.1454,0.1515,0.1515,0.1515,0.1515,0,0,0,0,0,0,0,0.1227,0.1231,0.1263,0.1293,0.1302,0.1332,0.1342,0.133,0.1404,0.139,0.1399,0.1406,0.1467,0.1473,0.1476,0.1456,0.1515,0.1515,0.1515,0.1514,0.1382,0.1378,0,0,0,0,0,0,0.1214,0.1228,0.126,0.1265,0.1276,0.133,0.1341,0.1343,0.1405,0.1417,0.1404,0.1412,0.1472,0.1476,0.1479,0.1404,0.1515,0.1514,0.1514,0.1385,0.1381,0.1377,0,0,0,0,0,0,0.1212,0.1216,0.1257,0.1249,0.1257,0.1327,0.1329,0.1343,0.1349,0.1415,0.1429,0.1397,0.1475,0.1479,0.1455,0.1408,0.1514,0.1514,0.1389,0.1384,0.1379,0.1253,0,0,0,0,0,0,0.1211,0.1214,0.119,0.1248,0.1257,0.1231,0.1326,0.1342,0.1349,0.1361,0.1412,0.1424,0.1478,0.1454,0.1454,0.141,0.1514,0.1394,0.1387,0.1381,0.1261,0.1244,0.1229,0,0,0,0,0,0.1209,0.1151,0.1188,0.1191,0.1227,0.1228,0.1234,0.1297,0.1345,0.132,0.1363,0.1422,0.1414,0.145,0.1452,0.1407,0.1397,0.1389,0.1381,0.1269,0.1247,0.1229,0,0,0,0,0,0,0.1085,0.116,0.1202,0.1161,0.1187,0.1249,0.122,0.1273,0.1286,0.1296,0.1374,0.1384,0.1349,0.1376,0.1416,0.1345,0.1415,0.1407,0.1328,0.1309,0.1293,0.1286,0.1514,0,0,0,0,0,0.1053,0.1048,0.1114,0.1071,0.1082,0.1148,0.1151,0.1198,0.1229,0.124,0.1281,0.1308,0.1312,0.1312,0.1319,0.1267,0.1279,0.1236,0.122,0.1207,0.1198,0.1172,0.1153,0.1351,0.1351,0.1352,0,0,0.0986,0.1027,0.1019,0.1047,0.1073,0.1066,0.1157,0.1145,0.114,0.1239,0.1217,0.1248,0.1283,0.1244,0.1229,0.1265,0.1147,0.1197,0.1185,0.1184,0.1162,0.1143,0.1126,0.1346,0.1347,0.1348,0,0,0.0861,0.0891,0.0859,0.0884,0.0922,0.0967,0.0959,0.1013,0.1037,0.1018,0.1091,0.1086,0.1091,0.1113,0.1124,0.1008,0.1063,0.1008,0.0923,0.0896,0.088,0.0867,0.0824,0.0808,0.1,0.1,0.1,0,0.0773,0.0765,0.0836,0.0819,0.0829,0.0919,0.0886,0.0907,0.0945,0.0949,0.099,0.0998,0.1028,0.0995,0.0966,0.0973,0.0966,0.1002,0.0877,0.0864,0.0853,0.0813,0.0797,0.0993,0.0994,0.0994,0.0995,0,0.0654,0.0648,0.0617,0.0652,0.0659,0.0635,0.0701,0.07,0.0746,0.0786,0.0765,0.0804,0.082,0.0817,0.0861,0.0789,0.0811,0.0863,0.0934,0.0826,0.0789,0.0775,0.0983,0.0985,0.0987,0.0989,0,0,0.0451,0.0527,0.0514,0.0531,0.0581,0.0577,0.0557,0.0573,0.057,0.0594,0.0578,0.058,0.0629,0.0642,0.069,0.0667,0.0571,0.0723,0.0725,0.0692,0.0493,0.0452,0.0433,0.0609,0.0606,0.0604,0.0489,0,0.0335,0.0304,0.0367,0.0321,0.0316,0.0401,0.0383,0.0411,0.0448,0.0449,0.049,0.049,0.0555,0.0563,0.0545,0.0586,0.0532,0.0596,0.0593,0.0592,0.058,0.0414,0.0371,0.0261,0.0476,0.0474,0.0472,0,0.0194,0.0212,0.0165,0.0217,0.0217,0.02,0.022,0.022,0.0254,0.0282,0.0297,0.0354,0.0338,0.0407,0.0385,0.0427,0.043,0.045,0.0448,0.0448,0.0524,0.0409,0.0227,0.021,0.0451,0.0452,0.0454,0,0.0049,0.0061,0.0034,0.0046,0.0107,0.0093,0.0118,0.0155,0.0161,0.0178,0.0183,0.0198,0.0206,0.0216,0.0276,0.0321,0.0245,0.032,0.0268,0.0266,0.0246,0.0246,0.0061,0.0251,0.0251,0.0251,0.0252,0,-0.0089,-0.0121,-0.003,-0.0047,-0.0081,-0.0008,-0.0043,-0.001,0.0022,0.0013,0.0089,0.0079,0.0159,0.0157,0.0204,0.0178,0.0181,0.0203,0.0215,0.0195,0.0192,0.0197,0.0205,0.0247,0.0248,0.0249,0.025,0,-0.0258,-0.0198,-0.0222,-0.0162,-0.0147,-0.0175,-0.0124,-0.0137,-0.0094,-0.0107,-0.0106,-0.0039,-0.0037,0.0024,0.0039,0.0071,0.0024,0.0052,0.0012,0.002,-0.0036,-0.0033,-0.0227,-0.0249,-0.0044,-0.0046,-0.0048,0,-0.0351,-0.0374,-0.0316,-0.0316,-0.0295,-0.0297,-0.029,-0.0219,-0.0215,-0.0178,-0.0196,-0.0188,-0.0177,-0.0178,-0.0129,-0.0117,-0.009,-0.0158,-0.0087,-0.0107,-0.0093,-0.0093,-0.0095,-0.0174,-0.0177,-0.0179,-0.0181,0,-0.0523,-0.0492,-0.0485,-0.0468,-0.0462,-0.0446,-0.0424,-0.0429,-0.035,-0.035,-0.0347,-0.0339,-0.0323,-0.0316,-0.0295,-0.027,-0.0214,-0.0203,-0.0215,-0.0237,-0.0259,-0.025,-0.0031,-0.0199,-0.0198,-0.0196,-0.0195,-0.0194,-0.0657,-0.0674,-0.0636,-0.0631,-0.0607,-0.0589,-0.0598,-0.0557,-0.0552,-0.0534,-0.0492,-0.0496,-0.0461,-0.0427,-0.0406,-0.0408,-0.0374,-0.0391,-0.0395,-0.0401,-0.0413,-0.0258,-0.0404,-0.0404,-0.0403,-0.0402,-0.0402,0,-0.0826,-0.0797,-0.0793,-0.0766,-0.0762,-0.0707,-0.068,-0.0681,-0.0685,-0.0657,-0.0649,-0.0645,-0.0638,-0.0588,-0.0575,-0.0586,-0.056,-0.0585,-0.0585,-0.058,-0.0444,-0.0436,-0.0607,-0.0607,-0.0607,-0.0607,-0.0607,-0.0607,-0.0914,-0.0939,-0.0904,-0.0917,-0.0887,-0.089,-0.088,-0.0863,-0.084,-0.084,-0.0833,-0.08,-0.0763,-0.0747,-0.0738,-0.0723,-0.0723,-0.0758,-0.0735,-0.0609,-0.059,-0.0571,-0.0563,-0.0758,-0.0758,-0.0871,-0.0872,-0.0873]},{"header":{"parameterUnit":"m.s-1","parameterCategory":1,"la1":30.2991,"la2":30.254,"lo1":-89.0895,"lo2":-89.0444,"dy":0.0017,"dx":0.0017,"nx":28,"ny":28,"refTime":"2024-08-11T03:00:00:Z","depth":0,"parameterNumber":3,"parameterNumberName":"V-component_of_WINDS"},"data":[0,0,0,0,0,0,0,0,0,0,0,0,0,0,0,0,0,0,0,0,0,0,0,0,0,0,0,0,0,0,0,0,0,0,0,0,0,0,0,0,0,0,0,0,0,0,0,0,0,0,0,0,0,0,0,0,0,0,0.0203,0.0203,0,0.0213,0.0213,0.0213,0.0176,0.0174,0.0173,0.0172,0.0182,0.0184,0.0185,0,0,0,0,0,0,0,0,0,0,0,0,0,0.0153,0.0154,0.0203,0.0203,0.0204,0.0213,0.0213,0.0213,0.0176,0.0174,0.0173,0.0172,0.0182,0.0184,0.0185,0,0,0,0,0,0,0,0,0,0,0,0,0,0.017,0.0155,0.0203,0.0186,0.0185,0.0212,0.0213,0.0213,0.0176,0.0174,0.0173,0.0171,0.0182,0.0183,0.0185,0.023,0,0,0.0191,0.0192,0,0,0,0,0,0,0,0,0.0169,0.0172,0.0189,0.0187,0.0186,0.0191,0.0199,0.0219,0.0176,0.0179,0.0172,0.017,0.0187,0.0188,0.0194,0.0231,0.0231,0.0191,0.0193,0.0193,0.0194,0,0,0,0,0,0,0,0.0168,0.0171,0.0207,0.0189,0.0187,0.0178,0.0178,0.0202,0.0192,0.0179,0.0176,0.0178,0.0186,0.0192,0.0193,0.0231,0.0191,0.0193,0.0194,0.0195,0.0303,0.0305,0,0,0,0,0,0,0.0169,0.0171,0.0207,0.0207,0.0173,0.018,0.0181,0.0191,0.0192,0.019,0.0179,0.0176,0.0189,0.0191,0.0194,0.0244,0.0193,0.0195,0.0196,0.0301,0.0304,0.0305,0,0,0,0,0,0,0.0168,0.0173,0.0206,0.0188,0.0192,0.0183,0.0195,0.0192,0.0198,0.0192,0.019,0.0187,0.0188,0.0191,0.0221,0.0244,0.0196,0.0198,0.0299,0.0302,0.0304,0.0346,0,0,0,0,0,0,0.0167,0.0173,0.019,0.0189,0.0193,0.0233,0.0196,0.0194,0.0201,0.0197,0.0199,0.0198,0.0187,0.0218,0.0223,0.0246,0.0199,0.0297,0.0301,0.0304,0.0343,0.035,0.0356,0,0,0,0,0,0.0165,0.0202,0.0191,0.0195,0.0214,0.0235,0.0237,0.0224,0.0204,0.022,0.0216,0.0198,0.0241,0.0221,0.0226,0.025,0.0296,0.03,0.0303,0.034,0.0348,0.0356,0,0,0,0,0,0,0.0206,0.0201,0.0189,0.0227,0.0231,0.0229,0.0249,0.0234,0.0245,0.024,0.0224,0.0225,0.0257,0.0257,0.0235,0.0292,0.0265,0.027,0.0291,0.0299,0.0306,0.0304,0.0201,0,0,0,0,0,0.022,0.0237,0.0232,0.0265,0.0268,0.0259,0.0267,0.0256,0.0261,0.0263,0.0261,0.0266,0.028,0.029,0.0303,0.0343,0.0342,0.0362,0.0369,0.0374,0.0378,0.0397,0.0405,0.0318,0.0318,0.0318,0,0,0.0247,0.0247,0.0259,0.0274,0.0276,0.0293,0.026,0.0281,0.0293,0.0266,0.0293,0.0292,0.0296,0.0331,0.0346,0.0332,0.0402,0.0379,0.0384,0.0384,0.0401,0.0409,0.0417,0.0321,0.032,0.032,0,0,0.0306,0.0309,0.0335,0.0338,0.0342,0.0335,0.0342,0.0341,0.0339,0.0366,0.0345,0.036,0.0386,0.0389,0.0394,0.0453,0.0435,0.0458,0.0492,0.051,0.0517,0.0523,0.0541,0.0548,0.0462,0.0462,0.0462,0,0.034,0.0365,0.0351,0.0372,0.0378,0.0354,0.038,0.0384,0.0392,0.0397,0.0381,0.0412,0.0413,0.0447,0.0461,0.0467,0.0472,0.0456,0.0517,0.0523,0.0528,0.0545,0.0553,0.0465,0.0465,0.0464,0.0464,0,0.0405,0.0424,0.0445,0.0452,0.0461,0.0485,0.0473,0.0484,0.0473,0.0467,0.0494,0.0495,0.0507,0.0515,0.0505,0.0546,0.0537,0.052,0.0491,0.0539,0.0555,0.0562,0.0468,0.0468,0.0467,0.0466,0,0,0.0489,0.0487,0.0495,0.0497,0.0499,0.0512,0.0535,0.0546,0.0554,0.0561,0.0578,0.06,0.0584,0.0589,0.0579,0.0596,0.0639,0.0576,0.0576,0.0585,0.0682,0.0693,0.0701,0.0629,0.063,0.0631,0.0681,0,0.0544,0.0581,0.0569,0.0606,0.0621,0.0598,0.0617,0.062,0.0616,0.0628,0.0624,0.0638,0.0617,0.062,0.0635,0.0631,0.0658,0.0627,0.0643,0.0643,0.0639,0.071,0.0722,0.0769,0.0688,0.0689,0.0689,0,0.0613,0.0621,0.066,0.0657,0.0663,0.068,0.0688,0.0701,0.0704,0.0699,0.0705,0.0691,0.0712,0.0686,0.0713,0.0693,0.0699,0.0697,0.0699,0.0698,0.0667,0.0708,0.0784,0.079,0.07,0.0699,0.0698,0,0.0667,0.0687,0.0712,0.0715,0.0714,0.0726,0.0726,0.0727,0.0734,0.0742,0.0745,0.0756,0.0761,0.0769,0.0758,0.074,0.0786,0.0759,0.0782,0.0782,0.079,0.0789,0.0866,0.0799,0.0799,0.0799,0.0799,0,0.0728,0.0752,0.0736,0.0751,0.0776,0.0762,0.0788,0.0786,0.0787,0.08,0.0782,0.0796,0.0782,0.0794,0.0785,0.0808,0.0811,0.0807,0.0804,0.0807,0.0807,0.0809,0.0804,0.0801,0.08,0.08,0.08,0,0.0791,0.0781,0.0806,0.0803,0.0802,0.0821,0.0818,0.0831,0.0826,0.0843,0.0847,0.0838,0.0851,0.0841,0.0855,0.0849,0.0878,0.0872,0.0877,0.0874,0.0896,0.0893,0.0974,0.0982,0.0913,0.0913,0.0914,0,0.0829,0.0846,0.0844,0.0851,0.0852,0.0865,0.0871,0.0858,0.0866,0.0869,0.0882,0.0894,0.0901,0.0923,0.0918,0.0928,0.092,0.0948,0.0921,0.0923,0.0917,0.0915,0.0915,0.0952,0.0953,0.0954,0.0954,0,0.0896,0.089,0.09,0.0908,0.0916,0.0922,0.0926,0.0933,0.092,0.0929,0.0941,0.0948,0.0961,0.0971,0.0979,0.0979,0.0964,0.0963,0.0968,0.097,0.0971,0.0968,0.0888,0.096,0.096,0.0959,0.0959,0.0959,0.0946,0.0959,0.0959,0.097,0.0972,0.0976,0.0988,0.0983,0.0993,0.1002,0.0994,0.1009,0.101,0.1018,0.102,0.1031,0.102,0.1028,0.1029,0.1031,0.1033,0.0971,0.1033,0.1033,0.1033,0.1032,0.1032,0,0.101,0.1009,0.1019,0.1025,0.1033,0.1019,0.1022,0.103,0.1043,0.1045,0.1053,0.1067,0.1077,0.1073,0.1082,0.1091,0.1084,0.1094,0.1091,0.1091,0.1044,0.1037,0.1099,0.1099,0.1099,0.1099,0.1099,0.1099,0.1044,0.1065,0.1059,0.1081,0.1079,0.1093,0.1096,0.1099,0.1101,0.1116,0.1124,0.1122,0.1121,0.1129,0.1138,0.1136,0.1139,0.115,0.1146,0.1101,0.1095,0.1088,0.1082,0.1152,0.1152,0.1192,0.1192,0.1193]}]]